Location: Clifton Park
(41.4873°N, 81.8024°W)
Time: 19:20:56
(UTC+00:00)

COSMOS 2428 - Pass Details

Date: 21 January 2020
Orbit: 844 x 858 km, 70.9° (Epoch: 21 February)

Event Time Altitude Azimuth Distance (km) Brightness Sun altitude
Rises 23:59:05 0° 327° (NNW) 3,439 6.2 -16.9°
Reaches altitude 10° 00:01:44 10° 319° (NW) 2,498 5.5 -17.4°
Maximum altitude 00:06:51 34° 256° (WSW) 1,369 4.5 -18.4°
Drops below altitude 10° 00:11:56 10° 192° (SSW) 2,481 5.4 -19.3°
Sets 00:14:34 0° 184° (S) 3,411 6.0 -19.8°
